www.pogodaiklimat.ru

АРХИВ ПОГОДЫ в Ростове-на-Дону

Время (UTC), дата Ветер
(напр.,м/с)
 
Видим.   Явления Облачность Т
(С)
Тd
(С)
f
(%)
Тe
(С)
Тes
(С)
Комфортность P
(гПа)
Po
(гПа)
Тmin
(С)
Tmax
(С)
R
(мм)
S
(см)
21 23.02 В 7 8000 м ясно +0.8 -1.5 85 -6 -6 по сезону 1023.3 1013.9
00 24.02 В 9-12
{11}
8000 м ясно -0.6 -3.4 81 -9 -9 по сезону 1023.0 1013.5
03 24.02 В 10-13
{14}
8000 м ясно -1.8 -4.9 79 -10 -10 по сезону 1021.6 1012.1 -1.8
06 24.02 В 9-12
{14}
10 км ясно +0.8 -4.4 68 -6 -6 по сезону 1021.5 1012.1 -1.9
09 24.02 В 10-14
{14}
10 км ясно +9.6 -3.4 40 +6 +6 тепло 1020.6 1011.5
12 24.02 В 11-15
{15}
10 км 3/0
[Ac trans]
+10.8 -5.1 32 +7 +7 тепло 1018.4 1009.3
15 24.02 В 7-13
{16}
8000 м 3/0
[Ac trans]
+7.3 -7.0 35 +3 +3 тепло 1019.0 1009.8 +11.0
18 24.02 В 10-14
{17}
8000 м 3/0
[Ac trans]
+2.7 -4.1 61 -4 -4 по сезону 1019.7 1010.4
21 24.02 В 11-15
{15}
8000 м ясно -0.2 -3.9 76 -9 -9 по сезону 1019.5 1010.1
00 25.02 В 10-13
{15}
8000 м ясно -1.6 -4.6 80 -10 -10 по сезону 1019.0 1009.5
03 25.02 В 11-15
{15}
8000 м дымка ясно -2.6 -5.6 80 -12 -12 прохладно 1019.6 1010.1 -2.6
06 25.02 В 11-15
{16}
10 км 8/0
[Ac trans Ci]
-1.6 -5.4 75 -10 -10 по сезону 1020.0 1010.5 -3.0
09 25.02 В 12-16
{17}
10 км 8/0
[Ac trans Ci fib]
+3.8 -3.5 59 -3 -3 по сезону 1018.6 1009.3
12 25.02 В 12-17
{17}
10 км 9/0
[Ac trans Ci fib]
+9.5 -3.9 39 +5 +5 тепло 1018.6 1009.5
15 25.02 В 9-12
{17}
8000 м 9/0
[Ac trans Ci]
+5.2 -4.4 50 -0 -0 по сезону 1020.7 1011.4 +9.6
18 25.02 В 7-10
{17}
8000 м 6/0
[Ci sp]
+2.5 -3.7 64 -3 -3 по сезону 1021.8 1012.4
21 25.02 В 8-11
{12}
8000 м 4/0
[Ci fib]
+0.7 -3.2 75 -6 -6 по сезону 1021.5 1012.1
00 26.02 В 7-10
{12}
8000 м 6/0
[Ac trans]
+0.8 -0.6 90 -6 -6 по сезону 1022.5 1013.1
03 26.02 В 6
{11}
8000 м дымка 10/6 180 м
[Sc Ac cuf]
+1.1 +0.1 93 -5 -5 по сезону 1023.6 1014.2 -0.2
06 26.02 В 8-11
{11}
10 км 10/8 240 м
[Sc Ac und]
+1.5 +0.2 91 -6 -6 по сезону 1025.1 1015.7
09 26.02 В 7
{11}
10 км 9/6 480 м
[Sc Ac trans]
+4.6 +0.8 76 -1 -1 по сезону 1025.7 1016.4
12 26.02 ЮВ 5
{11}
10 км 8/0
[Ac trans Ci fib]
+9.6 +1.8 58 +7 +8 тепло 1025.0 1015.8
15 26.02 В 4 10 км слабый дождь 10/8 1020 м
[Sc Ac und]
+9.1 +2.4 63 +6 +6 тепло 1025.9 1016.7 +10.2 0.0
18 26.02 В 4 8000 м {дождь} 10/10 1000 м
[Sc]
+5.7 +1.3 73 +2 +2 тепло 1027.1 1017.8
21 26.02 В 3 8000 м 8/5 800 м
[Sc Ac trans]
+1.7 -0.3 87 -3 -3 по сезону 1027.6 1018.2
00 27.02 В 5 7000 м дымка 4/4 200 м
[St]
+0.1 -0.6 95 -6 -6 по сезону 1027.8 1018.3
03 27.02 В 6 100 м переохл. туман [диам. изморози 0.5 мм] ?/? -0.2 -0.2 100 -7 -7 по сезону 1028.0 1018.5 -0.4 0.0
06 27.02 В 7
{10}
100 м туман [диам. изморози 0 мм] ?/? +1.1 +1.1 100 -6 -6 по сезону 1027.7 1018.2
09 27.02 В 7-10
{10}
4500 м в посл. час туман 10/10 90 м
[St]
+3.5 +3.1 97 -3 -3 по сезону 1026.9 1017.5
12 27.02 В 9-12
{12}
10 км {туман} 3/0
[Ci fib]
+8.0 +2.9 70 +3 +4 тепло 1024.7 1015.5
15 27.02 В 7-10
{13}
10 км 6/0
[Ac trans Ci fib]
+5.5 +2.2 79 0 0 по сезону 1023.8 1014.5 +8.6
18 27.02 В 10-13
{14}
8000 м 9/6 210 м
[St Ac trans]
+3.1 +1.6 90 -4 -4 по сезону 1023.4 1014.0
21 27.02 В 9-13
{14}
8000 м 9/6 240 м
[St Ac trans]
+3.0 +1.5 90 -4 -4 по сезону 1020.8 1011.5
00 28.02 В 9-13
{14}
2100 м слабая морось 10/10 90 м
[St]
+1.6 +1.1 96 -6 -6 по сезону 1018.9 1009.5
03 28.02 В 9-12
{14}
5000 м слабый дождь {морось} 10/8 120 м
[Sc Ac und]
+1.6 +1.1 96 -6 -6 по сезону 1017.5 1008.1 +1.5 0.0
06 28.02 В 8-12
{14}
3200 м слабая морось {дождь} 10/10 120 м
[St]
+1.6 +1.3 98 -6 -6 по сезону 1017.1 1007.7 +1.3
09 28.02 В 8-11
{13}
4700 м слабая морось 10/10 120 м
[St]
+1.6 +1.2 97 -6 -6 по сезону 1016.5 1007.2
12 28.02 В 8-12
{13}
4600 м слабая морось 10/10 120 м
[St]
+1.7 +1.3 97 -6 -6 прохладно 1015.6 1006.3
15 28.02 В 7-10
{12}
4300 м слабая морось 10/10 90 м
[St]
+1.5 +1.2 98 -5 -5 по сезону 1015.7 1006.4 +2.1 0.0
18 28.02 В 7
{12}
6000 м слабая морось 10/10 90 м
[St]
+1.2 +0.8 97 -6 -6 по сезону 1016.0 1006.6
21 28.02 В 5 1400 м слабая морось 10/10 60 м
[St]
+1.1 +0.8 98 -5 -5 по сезону 1015.4 1006.0
00 1.03 СВ 4 400 м слабая морось {туман} туман ?/? +1.0 +1.0 100 -5 -5 по сезону 1015.1 1005.7
03 1.03 СВ 4 400 м слабая морось {туман} туман ?/? +0.9 +0.9 100 -5 -5 по сезону 1015.6 1006.2 +0.9 0.0
06 1.03 СВ 4 3600 м дымка {морось, туман} 10/10 120 м
[St]
+1.4 +1.1 98 -4 -4 по сезону 1016.3 1006.9
09 1.03 СВ 5 10 км 10/5 330 м
[St Ac und]
+2.8 +0.9 87 -3 -2 по сезону 1016.1 1006.8
12 1.03 С 4 10 км 10/4 300 м
[Sc Ac und]
+3.7 +0.8 81 -1 -0 по сезону 1016.3 1007.0
15 1.03 С 3 10 км 10/5 600 м
[Sc Ac und]
+2.9 +0.3 83 -1 -1 по сезону 1016.9 1007.6 +3.8 0.0
18 1.03 С 3 8000 м 10/5 500 м
[Sc Ac und]
+2.4 +0.5 87 -2 -2 по сезону 1017.6 1008.3
21 1.03 СВ 2 8000 м 10/5 540 м
[Sc Ac und]
+1.9 0.0 87 -1 -1 по сезону 1017.9 1008.5
00 2.03 С 3 8000 м 10/5 660 м
[Sc Ac und]
+1.2 -0.4 89 -3 -3 по сезону 1017.8 1008.4
03 2.03 С 3 8000 м 9/3 600 м
[Sc Ac trans]
+0.9 -1.7 83 -4 -4 по сезону 1018.3 1008.9 +0.9
06 2.03 С 4 10 км 9/0
[Ac trans]
+1.6 -1.4 80 -3 -3 по сезону 1019.2 1009.8 +0.7
09 2.03 С 2 10 км 10/5 630 м
[Sc Ac und]
+3.0 -1.5 72 0 +1 по сезону 1018.9 1009.6
12 2.03 С 2 10 км 10/5 660 м
[Sc Ac und]
+3.8 -1.6 68 +1 +2 по сезону 1018.3 1009.0
15 2.03 СВ 3 10 км 10/6 720 м
[Sc Ac und]
+2.9 -1.4 73 -1 -1 по сезону 1018.7 1009.4 +4.0
18 2.03 В 2 8000 м 10/10 900 м
[Sc]
+2.0 -1.1 80 -1 -1 по сезону 1019.8 1010.4

 

Местоположение метеостанции Ростов-на-Дону (Ростовская область, Россия): широта 47.27 долгота 39.82 высота над уровнем моря 75 м.

В архиве по умолчанию представлена погода в Ростове-на-Дону за последнюю неделю. Архивные данные за месяц целиком и за предыдущие месяцы, начиная с января 2011 года, Вы можете получить, выбрав интересующий диапазон дат из раскрывающегося списка и нажав кнопку "Ввод!".

Внимание! Время в таблицах - всемирное. Для получения местного времени необходимо прибавить поправку, которая в Ростове-на-Дону равна 3 ч.

Ветер - указаны скорость ветра в м/с - средняя за 10 мин, порывы в срок и между сроками (в фигурных скобках) и направление, откуда дует ветер: С - северный, СВ - северо-восточный, В - восточный, ЮВ - юго-восточный, Ю - южный, ЮЗ - юго-западный, З - западный, СЗ - северо-западный.
Видимость - горизонтальная дальность видимости в метрах или километрах. При видимости от 1 до 10 км при отсутствии осадков обычно наблюдается дымка, при ухудшении видимости до 1 км и менее - туман. В сухую погоду видимость может ухудшаться дымом, пылью или мглою.
Явления - указаны атмосферные явления, наблюдавшиеся в срок или в последний час перед сроком; фигурными скобками обозначены явления, наблюдавшиеся между сроками (за 1-3 часа до срока); квадратными скобками обозначены град или гололедные отложения с указанием их диаметра в мм.
Облачность - указаны через наклонную черту общая и нижняя облачность в баллах и высота нижней границы облаков в метрах; квадратными скобками обозначены формы облаков: Ci - перистые, Cs - перисто-слоистые, Cc - перисто-кучевые, Ac - высококучевые, As - высокослоистые, Sc - слоисто-кучевые, Ns - слоисто-дождевые, Cu - кучевые, Cb - кучево-дождевые. Подробнее классификацию облаков см. в Атласе облаков (PDF).
T - Температура воздуха - температура, измеренная на высоте 2 м над землей.
Td - Температура точки росы - температура, при понижении до которой содержащийся в воздухе водяной пар достигнет насыщения.
f - Относительная влажность воздуха - влажноcть воздуха, измеренная на высоте 2 м над землей.
Te - Эффективная температура - температура, которую ощущает одетый по сезону человек в тени. Характеристика душности погоды. При расчете учитывается влияние влажности воздуха и скорости ветра на теплоощущения человека.
Tes - Эффективная температура на солнце - температура, которую ощущает человек, с поправкой на солнечный нагрев. Характеристика знойности погоды. Зависит от высоты солнца над горизонтом, облачности и скорости ветра. Ночью, в пасмурную погоду, а также при ветре 12 м/с и более поправка равна нулю.
P - Атмосферное давление - приведенное к уровню моря атмосферное давление.
Po - Атмосферное давление - измеренное на уровне метеостанции атмосферное давление.
Tmin - Минимальная температура - минимум температуры воздуха на высоте 2 м над землей.
Tmax - Максимальная температура - максимум температуры воздуха на высоте 2 м над землей.
R - Количество осадков - Количество выпавших осадков, мм.
S - Снежный покров - Высота снежного покрова, см.